| time (UTC) | temp F | wind direction | speed knots | gust knots | rain 1hr in | rain 24hr in | rain mn in | humidity % | barometer mb |
| 20260505093057 | 57 | 178 | 4.3 | 9.6 | 0.00 | 0.00 | 0.00 | 61 | 1008.6 |
| 20260505091558 | 57 | 171 | 4.3 | 10.4 | 0.00 | 0.00 | 0.00 | 61 | 1008.6 |
| 20260505090100 | 57 | 128 | 4.3 | 10.4 | 0.00 | 0.00 | 0.00 | 61 | 1008.7 |
| 20260505084600 | 57 | 184 | 4.3 | 10.4 | 0.00 | 0.00 | 0.00 | 60 | 1008.7 |
| 20260505083117 | 57 | 149 | 4.3 | 8.7 | 0.00 | 0.00 | 0.00 | 60 | 1008.6 |
| 20260505081559 | 57 | 169 | 5.2 | 9.6 | 0.00 | 0.00 | 0.00 | 60 | 1008.7 |
| 20260505080056 | 57 | 137 | 4.3 | 9.6 | 0.00 | 0.00 | 0.00 | 61 | 1009.0 |
| 20260505074558 | 56 | 127 | 3.5 | 9.6 | 0.00 | 0.00 | 0.00 | 62 | 1009.2 |
| 20260505073105 | 57 | 169 | 2.6 | 9.6 | 0.00 | 0.00 | 0.00 | 61 | 1009.2 |
| 20260505071557 | 57 | 150 | 5.2 | 9.6 | 0.00 | 0.00 | 0.00 | 63 | 1009.3 |
| 20260505070058 | 57 | 150 | 2.6 | 8.7 | 0.00 | 0.00 | 0.00 | 64 | 1009.5 |
| 20260505064603 | 58 | 144 | 3.5 | 8.7 | 0.00 | 0.00 | 0.00 | 62 | 1009.5 |
| 20260505063100 | 58 | 155 | 6.1 | 12.2 | 0.00 | 0.00 | 0.00 | 61 | 1009.5 |
| 20260505061611 | 58 | 182 | 6.1 | 13.9 | 0.00 | 0.00 | 0.00 | 61 | 1009.3 |
| 20260505054605 | 59 | 155 | 6.1 | 15.6 | 0.00 | 0.00 | 0.00 | 57 | 1008.8 |
| 20260505053112 | 58 | 161 | 3.5 | 6.1 | 0.00 | 0.00 | 0.00 | 55 | 1008.4 |
| 20260505051558 | 59 | 168 | 1.7 | 5.2 | 0.00 | 0.00 | 0.00 | 54 | 1008.2 |
| 20260505041614 | 61 | 148 | 6.1 | 12.2 | 0.00 | 0.00 | 0.00 | 49 | 1007.6 |
| 20260505034601 | 63 | 148 | 2.6 | 7.0 | 0.00 | 0.00 | 0.00 | 46 | 1007.2 |
| 20260505033100 | 63 | 163 | 3.5 | 8.7 | 0.00 | 0.00 | 0.00 | 44 | 1007.0 |
| 20260505031607 | 64 | 161 | 1.7 | 5.2 | 0.00 | 0.00 | 0.00 | 41 | 1006.6 |
| 20260505030100 | 65 | 173 | 0.9 | 4.3 | 0.00 | 0.00 | 0.00 | 38 | 1006.3 |
| 20260505024558 | 66 | 169 | 2.6 | 5.2 | 0.00 | 0.00 | 0.00 | 37 | 1006.2 |
| 20260505023103 | 67 | 160 | 2.6 | 6.1 | 0.00 | 0.00 | 0.00 | 36 | 1006.0 |
| 20260505021600 | 68 | 163 | 3.5 | 7.8 | 0.00 | 0.00 | 0.00 | 36 | 1006.1 |
| 20260505020059 | 70 | 215 | 3.5 | 8.7 | 0.00 | 0.00 | 0.00 | 34 | 1005.8 |
| 20260505014603 | 71 | 197 | 5.2 | 12.2 | 0.00 | 0.00 | 0.00 | 32 | 1005.8 |
| 20260505013101 | 72 | 165 | 6.1 | 11.3 | 0.00 | 0.00 | 0.00 | 30 | 1005.8 |
| 20260505011559 | 73 | 165 | 4.3 | 9.6 | 0.00 | 0.00 | 0.00 | 30 | 1005.9 |
| 20260505010058 | 73 | 229 | 4.3 | 10.4 | 0.00 | 0.00 | 0.00 | 29 | 1005.9 |
| 20260505004600 | 73 | 180 | 6.1 | 13.0 | 0.00 | 0.00 | 0.00 | 30 | 1006.1 |
| 20260505003101 | 73 | 163 | 4.3 | 13.9 | 0.00 | 0.00 | 0.00 | 31 | 1006.3 |
| 20260505001559 | 73 | 202 | 5.2 | 13.0 | 0.00 | 0.00 | 0.00 | 32 | 1006.4 |
| 20260505000109 | 74 | 200 | 7.0 | 14.8 | 0.00 | 0.00 | 0.00 | 29 | 1006.4 |
| 20260504234634 | 74 | 217 | 7.8 | 15.6 | 0.00 | 0.00 | 0.00 | 29 | 1006.5 |
| 20260504233104 | 74 | 225 | 6.1 | 13.0 | 0.00 | 0.00 | 0.00 | 28 | 1006.6 |
| 20260504231606 | 74 | 206 | 5.2 | 13.9 | 0.00 | 0.00 | 0.00 | 27 | 1006.6 |
| 20260504230100 | 75 | 208 | 7.0 | 16.5 | 0.00 | 0.00 | 0.00 | 27 | 1006.5 |
| 20260504224603 | 74 | 188 | 7.8 | 15.6 | 0.00 | 0.00 | 0.00 | 30 | 1006.6 |
| 20260504223100 | 75 | 207 | 7.8 | 20.0 | 0.00 | 0.00 | 0.00 | 30 | 1006.8 |
| 20260504221607 | 76 | 239 | 4.3 | 11.3 | 0.00 | 0.00 | 0.00 | 29 | 1006.7 |
| 20260504220059 | 76 | 234 | 3.5 | 12.2 | 0.00 | 0.00 | 0.00 | 25 | 1006.9 |
| 20260504214558 | 77 | 279 | 3.5 | 11.3 | 0.00 | 0.00 | 0.00 | 26 | 1007.0 |
| 20260504213058 | 77 | 300 | 4.3 | 10.4 | 0.00 | 0.00 | 0.00 | 26 | 1007.2 |
| 20260504211557 | 76 | 234 | 2.6 | 9.6 | 0.00 | 0.00 | 0.00 | 28 | 1007.5 |
| 20260504210110 | 76 | 199 | 5.2 | 9.6 | 0.00 | 0.00 | 0.00 | 25 | 1007.5 |
| 20260504204603 | 77 | 228 | 3.5 | 9.6 | 0.00 | 0.00 | 0.00 | 25 | 1007.7 |
| 20260504203058 | 76 | 316 | 3.5 | 8.7 | 0.00 | 0.00 | 0.00 | 26 | 1007.8 |
| 20260504201559 | 75 | 134 | 4.3 | 13.0 | 0.00 | 0.00 | 0.00 | 25 | 1008.0 |
| 20260504200101 | 75 | 269 | 2.6 | 10.4 | 0.00 | 0.00 | 0.00 | 28 | 1008.1 |
| 20260504194609 | 75 | 333 | 7.8 | 13.9 | 0.00 | 0.00 | 0.00 | 30 | 1008.2 |
| 20260504193102 | 75 | 281 | 3.5 | 11.3 | 0.00 | 0.00 | 0.00 | 33 | 1008.5 |
| 20260504191558 | 75 | 306 | 6.1 | 13.0 | 0.00 | 0.00 | 0.00 | 31 | 1008.6 |
| 20260504190128 | 74 | 323 | 5.2 | 13.9 | 0.00 | 0.00 | 0.00 | 33 | 1008.7 |
| 20260504184600 | 74 | 19 | 4.3 | 8.7 | 0.00 | 0.00 | 0.00 | 30 | 1008.7 |
| 20260504183057 | 74 | 225 | 1.7 | 6.1 | 0.00 | 0.00 | 0.00 | 31 | 1009.0 |
| 20260504181605 | 74 | 310 | 2.6 | 7.8 | 0.00 | 0.00 | 0.00 | 32 | 1009.2 |
| 20260504180208 | 74 | 182 | 2.6 | 8.7 | 0.00 | 0.00 | 0.00 | 32 | 1009.3 |
| 20260504174558 | 73 | 215 | 3.5 | 7.0 | 0.00 | 0.00 | 0.00 | 32 | 1009.5 |
| 20260504173125 | 72 | 178 | 1.7 | 7.0 | 0.00 | 0.00 | 0.00 | 33 | 1009.7 |
| 20260504171602 | 72 | 157 | 1.7 | 9.6 | 0.00 | 0.00 | 0.00 | 36 | 1009.7 |
| 20260504140115 | 61 | 167 | 3.5 | 7.0 | 0.00 | 0.00 | 0.00 | 47 | 1010.3 |
| 20260504120114 | 50 | 111 | 0.9 | 1.7 | 0.00 | 0.00 | 0.00 | 58 | 1010.1 |